Stündliche Wetter Abdaevo

Heute, 18 Juni, Freitag

Zeit Temperatur Niederschläge Wind Luftdruck Luftfeuchtigkeit
00:00 +10°C° 0 mm 2 m/S 750 mmHg 80%
01:00 +9°C° 0 mm 2 m/S 751 mmHg 80%
02:00 +8°C° 0 mm 2 m/S 751 mmHg 80%
03:00 +8°C° 0 mm 2 m/S 752 mmHg 80%
04:00 +9°C° 0 mm 3 m/S 752 mmHg 75%
05:00 +10°C° 0 mm 3 m/S 752 mmHg 71%
06:00 +11°C° 0 mm 3 m/S 753 mmHg 66%
07:00 +13°C° 0 mm 4 m/S 753 mmHg 61%
08:00 +14°C° 0 mm 4 m/S 753 mmHg 56%
09:00 +15°C° 0 mm 4 m/S 753 mmHg 51%
10:00 +17°C° 0 mm 4 m/S 753 mmHg 48%
11:00 +18°C° 0 mm 4 m/S 754 mmHg 45%
12:00 +19°C° 0 mm 4 m/S 754 mmHg 42%
13:00 +20°C° 0 mm 4 m/S 754 mmHg 41%
14:00 +20°C° 0 mm 3 m/S 753 mmHg 41%
15:00 +20°C° 0 mm 3 m/S 753 mmHg 41%
16:00 +20°C° 0 mm 2 m/S 753 mmHg 47%
17:00 +19°C° 0 mm 2 m/S 753 mmHg 53%
18:00 +20°C° 0 mm 1 m/S 753 mmHg 60%
19:00 +18°C° 0 mm 1 m/S 753 mmHg 63%
20:00 +15°C° 0 mm 1 m/S 753 mmHg 65%
21:00 +14°C° 0 mm 1 m/S 753 mmHg 68%
22:00 +13°C° 0 mm 2 m/S 753 mmHg 69%
23:00 +13°C° 0 mm 2 m/S 753 mmHg 70%

Morgen, 19 Juni, Samstag

Zeit Temperatur Niederschläge Wind Luftdruck Luftfeuchtigkeit
00:00 +12°C° 0 mm 2 m/S 753 mmHg 71%
01:00 +12°C° 0 mm 2 m/S 753 mmHg 74%
02:00 +12°C° 0 mm 2 m/S 753 mmHg 78%
03:00 +11°C° 0 mm 3 m/S 753 mmHg 81%
04:00 +12°C° 0 mm 3 m/S 753 mmHg 78%
05:00 +14°C° 0 mm 3 m/S 753 mmHg 74%
06:00 +15°C° 0 mm 4 m/S 753 mmHg 71%
07:00 +18°C° 0 mm 4 m/S 752 mmHg 66%
08:00 +20°C° 0 mm 5 m/S 752 mmHg 62%
09:00 +22°C° 0 mm 5 m/S 752 mmHg 57%
10:00 +25°C° 0 mm 5 m/S 751 mmHg 54%
11:00 +26°C° 0 mm 5 m/S 751 mmHg 50%
12:00 +28°C° 0 mm 6 m/S 751 mmHg 47%
13:00 +28°C° 0 mm 6 m/S 750 mmHg 46%
14:00 +28°C° 0 mm 6 m/S 750 mmHg 45%
15:00 +29°C° 0 mm 6 m/S 749 mmHg 44%
16:00 +28°C° 0 mm 5 m/S 749 mmHg 48%
17:00 +28°C° 0 mm 5 m/S 749 mmHg 53%
18:00 +27°C° 0 mm 4 m/S 749 mmHg 57%
19:00 +25°C° 0 mm 4 m/S 749 mmHg 63%
20:00 +23°C° 0 mm 4 m/S 749 mmHg 69%
21:00 +21°C° 0 mm 4 m/S 749 mmHg 75%
22:00 +20°C° 0 mm 4 m/S 749 mmHg 78%
23:00 +20°C° 0 mm 4 m/S 749 mmHg 81%

übermorgen, 20 Juni, Sonntag

Zeit Temperatur Niederschläge Wind Luftdruck Luftfeuchtigkeit
00:00 +19°C° 0 mm 4 m/S 749 mmHg 84%
01:00 +19°C° 0 mm 3 m/S 749 mmHg 87%
02:00 +18°C° 0 mm 3 m/S 749 mmHg 89%
03:00 +17°C° 0 mm 3 m/S 749 mmHg 92%
04:00 +19°C° 0 mm 3 m/S 749 mmHg 88%
05:00 +20°C° 0 mm 3 m/S 749 mmHg 83%
06:00 +21°C° 0 mm 3 m/S 750 mmHg 78%
07:00 +24°C° 0 mm 3 m/S 750 mmHg 71%
08:00 +25°C° 0 mm 3 m/S 750 mmHg 64%
09:00 +27°C° 0 mm 3 m/S 750 mmHg 57%
10:00 +28°C° 0 mm 3 m/S 750 mmHg 54%
11:00 +29°C° 0 mm 4 m/S 750 mmHg 50%
12:00 +30°C° 0 mm 4 m/S 750 mmHg 47%
13:00 +30°C° 0 mm 4 m/S 750 mmHg 47%
14:00 +30°C° 0 mm 4 m/S 750 mmHg 46%
15:00 +30°C° 0 mm 4 m/S 750 mmHg 46%
16:00 +29°C° 0 mm 3 m/S 750 mmHg 52%
17:00 +28°C° 0 mm 3 m/S 750 mmHg 58%
18:00 +27°C° 0 mm 2 m/S 750 mmHg 65%
19:00 +25°C° 0 mm 2 m/S 750 mmHg 70%
20:00 +23°C° 0 mm 2 m/S 750 mmHg 76%
21:00 +20°C° 0 mm 2 m/S 750 mmHg 81%
22:00 +19°C° 0 mm 2 m/S 750 mmHg 79%
23:00 +19°C° 0 mm 2 m/S 750 mmHg 76%

21 Juni, Montag

Zeit Temperatur Niederschläge Wind Luftdruck Luftfeuchtigkeit
00:00 +18°C° 0 mm 2 m/S 750 mmHg 74%
01:00 +18°C° 0.1 mm 2 m/S 750 mmHg 75%
02:00 +17°C° 0.1 mm 2 m/S 750 mmHg 77%
03:00 +18°C° 0.1 mm 1 m/S 750 mmHg 78%
04:00 +18°C° 0.4 mm 2 m/S 750 mmHg 80%
05:00 +19°C° 0.4 mm 2 m/S 750 mmHg 82%
06:00 +19°C° 0.4 mm 2 m/S 750 mmHg 84%
07:00 +21°C° 0 mm 2 m/S 750 mmHg 78%
08:00 +24°C° 0 mm 2 m/S 750 mmHg 72%
09:00 +27°C° 0 mm 2 m/S 750 mmHg 65%
10:00 +28°C° 0.2 mm 2 m/S 749 mmHg 59%
11:00 +29°C° 0.2 mm 3 m/S 749 mmHg 53%
12:00 +30°C° 0.2 mm 3 m/S 749 mmHg 47%
13:00 +31°C° 0 mm 3 m/S 749 mmHg 46%
14:00 +31°C° 0 mm 3 m/S 748 mmHg 45%
15:00 +32°C° 0 mm 4 m/S 748 mmHg 45%
16:00 +30°C° 0 mm 3 m/S 748 mmHg 50%
17:00 +29°C° 0 mm 3 m/S 748 mmHg 55%
18:00 +28°C° 0 mm 3 m/S 748 mmHg 60%
19:00 +26°C° 0 mm 3 m/S 748 mmHg 68%
20:00 +24°C° 0 mm 2 m/S 748 mmHg 75%
21:00 +23°C° 0 mm 2 m/S 748 mmHg 83%
22:00 +21°C° 0 mm 2 m/S 748 mmHg 83%
23:00 +21°C° 0 mm 2 m/S 748 mmHg 83%

22 Juni, Dienstag

Zeit Temperatur Niederschläge Wind Luftdruck Luftfeuchtigkeit
00:00 +20°C° 0 mm 2 m/S 748 mmHg 84%
01:00 +20°C° 0 mm 2 m/S 748 mmHg 82%
02:00 +19°C° 0 mm 2 m/S 748 mmHg 80%
03:00 +19°C° 0 mm 2 m/S 748 mmHg 79%
04:00 +20°C° 0 mm 3 m/S 748 mmHg 76%
05:00 +21°C° 0 mm 3 m/S 748 mmHg 74%
06:00 +22°C° 0 mm 3 m/S 748 mmHg 71%
07:00 +25°C° 0 mm 3 m/S 748 mmHg 66%
08:00 +27°C° 0 mm 3 m/S 748 mmHg 60%
09:00 +29°C° 0 mm 3 m/S 748 mmHg 54%
10:00 +30°C° 0 mm 3 m/S 748 mmHg 51%
11:00 +31°C° 0 mm 3 m/S 748 mmHg 47%
12:00 +33°C° 0 mm 3 m/S 748 mmHg 44%
13:00 +33°C° 0 mm 3 m/S 748 mmHg 43%
14:00 +33°C° 0 mm 4 m/S 748 mmHg 43%
15:00 +33°C° 0 mm 4 m/S 748 mmHg 43%
16:00 +31°C° 0 mm 3 m/S 748 mmHg 48%
17:00 +30°C° 0 mm 2 m/S 748 mmHg 54%
18:00 +30°C° 0 mm 1 m/S 748 mmHg 60%
19:00 +28°C° 0 mm 1 m/S 748 mmHg 65%
20:00 +26°C° 0 mm 2 m/S 749 mmHg 70%
21:00 +24°C° 0 mm 2 m/S 749 mmHg 76%
22:00 +24°C° 0 mm 1 m/S 749 mmHg 77%
23:00 +23°C° 0 mm 1 m/S 749 mmHg 79%

23 Juni, Mittwoch

Zeit Temperatur Niederschläge Wind Luftdruck Luftfeuchtigkeit
00:00 +22°C° 0 mm 1 m/S 749 mmHg 81%
01:00 +22°C° 0 mm 1 m/S 749 mmHg 83%
02:00 +21°C° 0 mm 1 m/S 750 mmHg 86%
03:00 +20°C° 0 mm 1 m/S 750 mmHg 88%
04:00 +22°C° 0 mm 1 m/S 750 mmHg 85%
05:00 +23°C° 0 mm 1 m/S 750 mmHg 82%
06:00 +24°C° 0 mm 1 m/S 751 mmHg 79%
07:00 +25°C° 0 mm 2 m/S 751 mmHg 73%
08:00 +26°C° 0 mm 2 m/S 751 mmHg 67%
09:00 +28°C° 0 mm 2 m/S 751 mmHg 61%
10:00 +28°C° 0 mm 2 m/S 751 mmHg 58%
11:00 +29°C° 0 mm 2 m/S 751 mmHg 54%
12:00 +30°C° 0 mm 2 m/S 751 mmHg 51%
13:00 +30°C° 0 mm 2 m/S 751 mmHg 50%
14:00 +30°C° 0 mm 2 m/S 751 mmHg 50%
15:00 +30°C° 0 mm 2 m/S 751 mmHg 49%
16:00 +29°C° 0 mm 2 m/S 751 mmHg 56%
17:00 +28°C° 0 mm 2 m/S 751 mmHg 62%
18:00 +27°C° 0 mm 2 m/S 751 mmHg 69%
19:00 +26°C° 0 mm 2 m/S 751 mmHg 74%
20:00 +24°C° 0 mm 2 m/S 751 mmHg 80%
21:00 +23°C° 0 mm 1 m/S 751 mmHg 85%
22:00 +22°C° 0 mm 1 m/S 751 mmHg 86%
23:00 +20°C° 0 mm 2 m/S 751 mmHg 87%
Mehr zeigen

Wir brauchen deine Erlaubnis

Meteoprog und unser Service Anbieter werden persönliche Daten aufbewahren, so wie Cookies, Geräte Bezeichnung oder ähnliche Technologien von deinem Gerät und Prozess, so wie Persönliche Daten Inhalte und Werbungen, genauso wie social Media und den Verkehr zu analysieren.

  • Aufbewahrung und/oder Zugang zu deiner Geräte Informationen.

    Cookies, Geräte Bezeichnung oder andere Informationen, können aufbewahrt oder Zugang zu deinem Gerät erhalten, für den Grund, der oben angegeben wird.

  • Personalisierte Werbung und Inhalte, Messungen, Einblick in das Publikum und Produkt Entwicklung.

    Werbungen und Inhalte können personalisiert werden, basierend auf ein Profil. Mehr Daten können besser personalisierte Werbungen und Inhalte hinzufügen. Werbung und Inhalte können gezeigt und gemessen werden. Einblicke über das Publikum, welche die Werbung gesehen haben und den Inhalt, können abgeleitet werden. So wie Daten können genutzt werden, um es zu verbessern oder die Benutzer Erfahrung zu verbessern das System und die Software.

Wenn du “Ich stimme zu” klickst, erlaubst du uns, die Cookies zu benutzen die Geräte Bezeichnung, den Web oder ähnliche Technologien zu benutzen. Deine Settings, können in deinem Gerät bei deinem Browser geändert werden.

Für den bestimmten Zweck, berechtigten Interessen beruhen darauf, mehr als auf den Inhalt. Du kannst mehr darüber in unseren Privaten und Cookie Politik lesen.